Weather History for KW29 - May, 2013

Change the Weather History Date:

Saturday, May 25, 2013

  Actual Average (KESN) Record (KESN)
Temperature  
Mean Temperature 55 °F -  
Max Temperature 64 °F 75 °F 89 °F (1964)
Min Temperature 46 °F 56 °F 37 °F (1956)
Degree Days  
Heating Degree Days 10    
Growing Degree Days 5 (Base 50)    
Moisture  
Dew Point 35 °F    
Average Humidity 46    
Maximum Humidity 66    
Minimum Humidity 32    
Precipitation  
Precipitation 0.00 in - - ()
Sea Level Pressure  
Sea Level Pressure 30.10 in    
Wind  
Wind Speed 17 mph (WNW)    
Max Wind Speed 22 mph    
Max Gust Speed 32 mph    
Visibility 10 miles    
Events      
Averages and records for this station are not official NWS values.
T = Trace of Precipitation, MM = Missing Value Source: NWS Daily Summary

Daily Weather History Graph

Daily Weather History Graph

Search for Another Location

Airport or City:

Trip Planner

Search our weather history database for the weather conditions in past years. The results will help you decide how hot, cold, wet, or windy it might be!

Date:

Astronomy

May. 25, 2013 Rise Set
Actual Time 5:44 AM EDT 8:20 PM EDT
Civil Twilight 5:14 AM EDT 8:51 PM EDT
Nautical Twilight 4:35 AM EDT 9:29 PM EDT
Astronomical Twilight 3:52 AM EDT 10:12 PM EDT
Moon 9:05 PM EDT (5/25) 6:09 AM EDT (5/25)
Length of Visible Light 15h 36m
Length of Day
14h 35m
Full, 100% of the Moon is Illuminated
May 25
Full
May 31
Last Quarter
Jun 8
New
Jun 16
First Quarter
Jun 23
Full

Hourly Weather History & Observations

Time (EDT) Temp. Windchill Dew Point Humidity Pressure Visibility Wind Dir Wind Speed Gust Speed Precip Events Conditions
12:06 AM 51.8 °F - 35.6 °F 54% 30.11 in 10.0 mi NW 18.4 mph 28.8 mph N/A   Mostly Cloudy
12:26 AM 51.8 °F - 35.6 °F 54% 30.11 in 10.0 mi NW 16.1 mph 25.3 mph N/A   Scattered Clouds
12:46 AM 51.8 °F - 33.8 °F 50% 30.11 in 10.0 mi NW 11.5 mph 26.5 mph N/A   Scattered Clouds
1:06 AM 50.0 °F - 33.8 °F 54% 30.11 in 10.0 mi NW 19.6 mph 27.6 mph N/A   Scattered Clouds
1:26 AM 50.0 °F - 33.8 °F 54% 30.10 in 10.0 mi WNW 15.0 mph 28.8 mph N/A   Scattered Clouds
1:47 AM 50.0 °F - 33.8 °F 54% 30.10 in 10.0 mi WNW 18.4 mph 24.2 mph N/A   Scattered Clouds
2:07 AM 50.0 °F - 33.8 °F 54% 30.10 in 10.0 mi WNW 17.3 mph 26.5 mph N/A   Scattered Clouds
2:27 AM 50.0 °F - 33.8 °F 54% 30.10 in 10.0 mi WNW 19.6 mph 25.3 mph N/A   Scattered Clouds
2:47 AM 50.0 °F - 33.8 °F 54% 30.10 in 10.0 mi WNW 20.7 mph 27.6 mph N/A   Scattered Clouds
3:07 AM 48.2 °F - 33.8 °F 58% 30.09 in 10.0 mi WNW 19.6 mph 26.5 mph N/A   Clear
3:27 AM 48.2 °F - 33.8 °F 58% 30.10 in 10.0 mi WNW 18.4 mph 25.3 mph N/A   Clear
3:47 AM 48.2 °F - 33.8 °F 58% 30.10 in 10.0 mi WNW 18.4 mph 25.3 mph N/A   Clear
4:07 AM 48.2 °F - 33.8 °F 58% 30.10 in 10.0 mi WNW 18.4 mph 25.3 mph N/A   Clear
4:27 AM 46.4 °F 39.0 °F 35.6 °F 66% 30.10 in 10.0 mi WNW 19.6 mph 25.3 mph N/A   Clear
4:47 AM 46.4 °F 38.7 °F 33.8 °F 62% 30.10 in 10.0 mi WNW 20.7 mph 27.6 mph N/A   Clear
5:07 AM 46.4 °F 39.2 °F 35.6 °F 66% 30.10 in 10.0 mi WNW 18.4 mph 32.2 mph N/A   Clear
5:27 AM 46.4 °F 38.7 °F 35.6 °F 66% 30.10 in 10.0 mi WNW 20.7 mph 27.6 mph N/A   Clear
5:47 AM 46.4 °F 39.0 °F 35.6 °F 66% 30.11 in 10.0 mi WNW 19.6 mph 27.6 mph N/A   Clear
6:07 AM 46.4 °F 39.2 °F 35.6 °F 66% 30.10 in 10.0 mi WNW 18.4 mph 27.6 mph N/A   Clear
6:27 AM 46.4 °F 38.7 °F 35.6 °F 66% 30.11 in 10.0 mi WNW 20.7 mph 25.3 mph N/A   Clear
6:47 AM 46.4 °F 39.0 °F 35.6 °F 66% 30.11 in 10.0 mi WNW 19.6 mph 25.3 mph N/A   Clear
7:07 AM 48.2 °F - 35.6 °F 62% 30.12 in 10.0 mi WNW 19.6 mph 27.6 mph N/A   Clear
7:27 AM 48.2 °F - 35.6 °F 62% 30.12 in 10.0 mi WNW 20.7 mph 29.9 mph N/A   Clear
7:47 AM 50.0 °F - 35.6 °F 58% 30.13 in 10.0 mi WNW 19.6 mph 27.6 mph N/A   Clear
8:07 AM 50.0 °F - 35.6 °F 58% 30.14 in 10.0 mi WNW 21.9 mph 25.3 mph N/A   Clear
8:27 AM 51.8 °F - 35.6 °F 54% 30.14 in 10.0 mi WNW 18.4 mph 25.3 mph N/A   Clear
8:47 AM 51.8 °F - 35.6 °F 54% 30.14 in 10.0 mi WNW 17.3 mph 26.5 mph N/A   Clear
9:07 AM 51.8 °F - 35.6 °F 54% 30.14 in 10.0 mi WNW 18.4 mph 26.5 mph N/A   Clear
9:27 AM 53.6 °F - 33.8 °F 47% 30.13 in 10.0 mi WNW 18.4 mph 25.3 mph N/A   Clear
9:47 AM 53.6 °F - 35.6 °F 51% 30.14 in 10.0 mi NW 18.4 mph 24.2 mph N/A   Clear
10:08 AM 53.6 °F - 33.8 °F 47% 30.13 in 10.0 mi WNW 19.6 mph 26.5 mph N/A   Clear
10:28 AM 55.4 °F - 35.6 °F 47% 30.12 in 10.0 mi WNW 16.1 mph 26.5 mph N/A   Clear
10:48 AM 55.4 °F - 35.6 °F 47% 30.12 in 10.0 mi NW 17.3 mph 26.5 mph N/A   Clear
11:08 AM 55.4 °F - 35.6 °F 47% 30.12 in 10.0 mi WNW 15.0 mph 26.5 mph N/A   Clear
11:28 AM 55.4 °F - 35.6 °F 47% 30.12 in 10.0 mi NW 13.8 mph 20.7 mph N/A   Clear
11:48 AM 59.0 °F - 35.6 °F 42% 30.12 in 10.0 mi WNW 12.7 mph 24.2 mph N/A   Clear
12:08 PM 59.0 °F - 33.8 °F 39% 30.11 in 10.0 mi WNW 16.1 mph 21.9 mph N/A   Clear
12:28 PM 59.0 °F - 35.6 °F 42% 30.10 in 10.0 mi WNW 12.7 mph - N/A   Clear
12:48 PM 59.0 °F - 33.8 °F 39% 30.10 in 10.0 mi WNW 18.4 mph 24.2 mph N/A   Clear
1:08 PM 60.8 °F - 33.8 °F 36% 30.10 in 10.0 mi WNW 16.1 mph 26.5 mph N/A   Clear
1:28 PM 60.8 °F - 33.8 °F 36% 30.10 in 10.0 mi WNW 15.0 mph 31.1 mph N/A   Clear
1:48 PM 60.8 °F - 35.6 °F 39% 30.09 in 10.0 mi NW 19.6 mph 25.3 mph N/A   Clear
2:08 PM 60.8 °F - 35.6 °F 39% 30.09 in 10.0 mi WNW 15.0 mph 25.3 mph N/A   Clear
2:28 PM 62.6 °F - 35.6 °F 37% 30.09 in 10.0 mi WNW 15.0 mph 27.6 mph N/A   Clear
2:48 PM 62.6 °F - 37.4 °F 39% 30.08 in 10.0 mi WNW 16.1 mph 23.0 mph N/A   Clear
3:08 PM 62.6 °F - 35.6 °F 37% 30.08 in 10.0 mi NW 17.3 mph 25.3 mph N/A   Clear
3:28 PM 62.6 °F - 35.6 °F 37% 30.08 in 10.0 mi NW 15.0 mph 21.9 mph N/A   Clear
3:48 PM 62.6 °F - 33.8 °F 34% 30.07 in 10.0 mi WNW 18.4 mph 26.5 mph N/A   Clear
4:08 PM 62.6 °F - 35.6 °F 37% 30.07 in 10.0 mi NW 15.0 mph 25.3 mph N/A   Clear
4:28 PM 64.4 °F - 33.8 °F 32% 30.06 in 10.0 mi WNW 20.7 mph 26.5 mph N/A   Clear
4:48 PM 64.4 °F - 35.6 °F 34% 30.07 in 10.0 mi NW 11.5 mph 20.7 mph N/A   Clear
5:08 PM 64.4 °F - 33.8 °F 32% 30.07 in 10.0 mi NW 16.1 mph 23.0 mph N/A   Clear
5:28 PM 64.4 °F - 35.6 °F 34% 30.07 in 10.0 mi WNW 18.4 mph 25.3 mph N/A   Clear
5:48 PM 64.4 °F - 35.6 °F 34% 30.07 in 10.0 mi WNW 12.7 mph 23.0 mph N/A   Clear
6:08 PM 64.4 °F - 33.8 °F 32% 30.06 in 10.0 mi WNW 16.1 mph 21.9 mph N/A   Clear
6:28 PM 64.4 °F - 33.8 °F 32% 30.06 in 10.0 mi NW 16.1 mph 25.3 mph N/A   Clear
6:48 PM 64.4 °F - 33.8 °F 32% 30.07 in 10.0 mi NW 11.5 mph 20.7 mph N/A   Clear
7:09 PM 64.4 °F - 33.8 °F 32% 30.07 in 10.0 mi WNW 17.3 mph 23.0 mph N/A   Clear
7:29 PM 64.4 °F - 33.8 °F 32% 30.07 in 10.0 mi WNW 15.0 mph 23.0 mph N/A   Clear
7:49 PM 64.4 °F - 33.8 °F 32% 30.07 in 10.0 mi WNW 13.8 mph 23.0 mph N/A   Clear
8:09 PM 62.6 °F - 33.8 °F 34% 30.08 in 10.0 mi WNW 12.7 mph - N/A   Clear
8:29 PM 62.6 °F - 33.8 °F 34% 30.08 in 10.0 mi West 9.2 mph - N/A   Clear
8:49 PM 62.6 °F - 35.6 °F 37% 30.08 in 10.0 mi West 10.4 mph - N/A   Clear
9:09 PM 60.8 °F - 37.4 °F 42% 30.08 in 10.0 mi West 10.4 mph - N/A   Clear
9:29 PM 60.8 °F - 37.4 °F 42% 30.09 in 10.0 mi West 9.2 mph - N/A   Clear
9:49 PM 60.8 °F - 37.4 °F 42% 30.10 in 10.0 mi West 11.5 mph - N/A   Clear
10:09 PM 60.8 °F - 37.4 °F 42% 30.11 in 10.0 mi West 11.5 mph - N/A   Clear
10:29 PM 60.8 °F - 37.4 °F 42% 30.11 in 10.0 mi West 12.7 mph - N/A   Clear
10:49 PM 60.8 °F - 35.6 °F 39% 30.11 in 10.0 mi WNW 12.7 mph 17.3 mph N/A   Clear
11:09 PM 59.0 °F - 35.6 °F 42% 30.12 in 10.0 mi WNW 9.2 mph 17.3 mph N/A   Clear
11:29 PM 59.0 °F - 35.6 °F 42% 30.13 in 10.0 mi WNW 10.4 mph - N/A   Clear
11:49 PM 59.0 °F - 35.6 °F 42% 30.13 in 10.0 mi WNW 12.7 mph - N/A   Clear